Weather History for Pinedale, WY

Change the Weather History Date:

Thursday, July 18, 2013

  Actual Average (KBPI) Record (KBPI)
Temperature  
Mean Temperature 68 °F 63 °F  
Max Temperature 84 °F 81 °F 92 °F (2006)
Min Temperature 51 °F 44 °F 29 °F (1983)
Degree Days  
Heating Degree Days 0 3  
Month to date heating degree days 76  
Since 1 June heating degree days 381  
Since 1 July heating degree days 76  
Cooling Degree Days 2 1  
Month to date cooling degree days 10  
Year to date cooling degree days 12  
Since 1 June cooling degree days 12  
Growing Degree Days 18 (Base 50)    
Moisture  
Dew Point 42 °F    
Average Humidity 47    
Maximum Humidity 94    
Minimum Humidity 13    
Precipitation  
Precipitation 0.00 in 0.02 in 0.31 in (1997)
Month to date precipitation 0.36  
Year to date precipitation 3.62  
Sea Level Pressure  
Sea Level Pressure 30.35 in    
Wind  
Wind Speed 7 mph (NW)    
Max Wind Speed 18 mph    
Max Gust Speed 26 mph    
Visibility 10 miles    
Events      
T = Trace of Precipitation, MM = Missing Value Source: NWS Daily Summary

Daily Weather History Graph

Daily Weather History Graph

Search for Another Location

Airport:

Trip Planner

Search our weather history database for the weather conditions in past years. The results will help you decide how hot, cold, wet, or windy it might be!

Date:

Astronomy

Jul. 18, 2013 Rise Set
Actual Time 5:57 AM MDT 8:53 PM MDT
Civil Twilight 5:23 AM MDT 9:26 PM MDT
Nautical Twilight 4:40 AM MDT 10:09 PM MDT
Astronomical Twilight 3:50 AM MDT 10:58 PM MDT
Moon 4:53 PM MDT (7/18) 1:51 AM MDT (7/18)
Length of Visible Light 16h 03m
Length of Day
14h 55m
Waxing Gibbous, 78% of the Moon is Illuminated
Jul 18
Waxing Gibbous
Jul 22
Full
Jul 29
Last Quarter
Aug 6
New
Aug 14
First Quarter

Hourly Weather History & Observations

Time (MDT) Temp. Dew Point Humidity Pressure Visibility Wind Dir Wind Speed Gust Speed Precip Events Conditions
12:16 AM 62.6 °F 51.8 °F 68% 30.39 in 10.0 mi ENE 9.2 mph - N/A   Mostly Cloudy
12:36 AM 62.6 °F 50.0 °F 63% 30.40 in 10.0 mi North 5.8 mph - N/A   Mostly Cloudy
12:56 AM 60.8 °F 51.8 °F 72% 30.38 in 10.0 mi Calm Calm - N/A   Scattered Clouds
1:16 AM 60.8 °F 50.0 °F 68% 30.37 in 10.0 mi WSW 4.6 mph - N/A   Mostly Cloudy
1:36 AM 60.8 °F 50.0 °F 68% 30.37 in 10.0 mi SW 3.5 mph - N/A   Scattered Clouds
1:56 AM 59.0 °F 50.0 °F 72% 30.37 in 10.0 mi West 10.4 mph - N/A   Clear
2:16 AM 59.0 °F 51.8 °F 77% 30.36 in 10.0 mi WNW 6.9 mph - N/A   Clear
2:36 AM 57.2 °F 51.8 °F 82% 30.37 in 10.0 mi NW 9.2 mph - N/A   Clear
2:56 AM 57.2 °F 51.8 °F 82% 30.37 in 10.0 mi NW 10.4 mph - N/A   Clear
3:16 AM 55.4 °F 53.6 °F 94% 30.37 in 10.0 mi WNW 10.4 mph - N/A   Clear
3:56 AM 55.4 °F 51.8 °F 88% 30.37 in 10.0 mi NW 8.1 mph - N/A   Clear
4:16 AM 53.6 °F 51.8 °F 94% 30.36 in 10.0 mi WNW 5.8 mph - N/A   Clear
4:36 AM 53.6 °F 51.8 °F 94% 30.37 in 10.0 mi West 4.6 mph - N/A   Scattered Clouds
4:58 AM 53.6 °F 51.8 °F 94% 30.37 in 10.0 mi Calm Calm - N/A   Scattered Clouds
5:16 AM 53.6 °F 51.8 °F 94% 30.38 in 10.0 mi Calm Calm - N/A   Scattered Clouds
5:37 AM 51.8 °F 50.0 °F 94% 30.38 in 10.0 mi WNW 5.8 mph - N/A   Scattered Clouds
5:56 AM 51.8 °F 50.0 °F 94% 30.38 in 10.0 mi WNW 4.6 mph - N/A   Scattered Clouds
6:17 AM 51.8 °F 50.0 °F 94% 30.39 in 10.0 mi NNW 4.6 mph - N/A   Scattered Clouds
6:36 AM 51.8 °F 50.0 °F 94% 30.39 in 10.0 mi NW 5.8 mph - N/A   Clear
6:56 AM 53.6 °F 50.0 °F 88% 30.39 in 10.0 mi NW 3.5 mph - N/A   Clear
7:16 AM 53.6 °F 51.8 °F 94% 30.40 in 10.0 mi WNW 3.5 mph - N/A   Clear
7:36 AM 55.4 °F 51.8 °F 88% 30.40 in 10.0 mi NW 5.8 mph - N/A   Clear
7:58 AM 57.2 °F 51.8 °F 82% 30.41 in 10.0 mi NW 3.5 mph - N/A   Clear
8:15 AM 59.0 °F 51.8 °F 77% 30.41 in 10.0 mi Calm Calm - N/A   Clear
8:35 AM 62.6 °F 51.8 °F 68% 30.41 in 10.0 mi Calm Calm - N/A   Clear
8:55 AM 62.6 °F 51.8 °F 68% 30.42 in 10.0 mi East 4.6 mph - N/A   Clear
9:15 AM 64.4 °F 51.8 °F 64% 30.42 in 10.0 mi SE 3.5 mph - N/A   Clear
9:35 AM 68.0 °F 50.0 °F 52% 30.41 in 10.0 mi SSE 3.5 mph - N/A   Clear
9:55 AM 69.8 °F 50.0 °F 49% 30.40 in 10.0 mi SE 4.6 mph - N/A   Clear
10:15 AM 71.6 °F 48.2 °F 43% 30.40 in 10.0 mi SSE 3.5 mph - N/A   Clear
10:38 AM 73.4 °F 46.4 °F 38% 30.39 in 10.0 mi ESE 3.5 mph - N/A   Clear
10:56 AM 75.2 °F 44.6 °F 34% 30.39 in 10.0 mi ESE 4.6 mph - N/A   Clear
11:15 AM 75.2 °F 44.6 °F 34% 30.39 in 10.0 mi SE 3.5 mph - N/A   Clear
11:35 AM 77.0 °F 44.6 °F 32% 30.38 in 10.0 mi NNW 5.8 mph - N/A   Clear
11:56 AM 78.8 °F 42.8 °F 28% 30.38 in 10.0 mi NNW 8.1 mph - N/A   Clear
12:15 PM 78.8 °F 42.8 °F 28% 30.38 in 10.0 mi NNW 6.9 mph - N/A   Clear
12:35 PM 82.4 °F 30.2 °F 15% 30.37 in 10.0 mi North 18.4 mph 24.2 mph N/A   Clear
12:55 PM 80.6 °F 33.8 °F 18% 30.37 in 10.0 mi NNW 15.0 mph 21.9 mph N/A   Clear
1:16 PM 82.4 °F 30.2 °F 15% 30.36 in 10.0 mi NNW 13.8 mph 26.5 mph N/A   Clear
1:35 PM 82.4 °F 30.2 °F 15% 30.36 in 10.0 mi NW 13.8 mph 24.2 mph N/A   Clear
1:56 PM 82.4 °F 30.2 °F 15% 30.36 in 10.0 mi NW 11.5 mph 23.0 mph N/A   Clear
2:16 PM 82.4 °F 33.8 °F 17% 30.35 in 10.0 mi NW 11.5 mph - N/A   Clear
2:35 PM 82.4 °F 33.8 °F 17% 30.35 in 10.0 mi NW 12.7 mph 18.4 mph N/A   Clear
2:56 PM 84.2 °F 33.8 °F 16% 30.34 in 10.0 mi NW 13.8 mph 21.9 mph N/A   Clear
3:16 PM 84.2 °F 30.2 °F 14% 30.33 in 10.0 mi NNW 17.3 mph 24.2 mph N/A   Clear
3:36 PM 82.4 °F 30.2 °F 15% 30.32 in 10.0 mi NNW 16.1 mph 20.7 mph N/A   Clear
3:55 PM 84.2 °F 30.2 °F 14% 30.32 in 10.0 mi NNW 15.0 mph 19.6 mph N/A   Clear
4:16 PM 84.2 °F 28.4 °F 13% 30.31 in 10.0 mi NW 11.5 mph 21.9 mph N/A   Clear
4:35 PM 84.2 °F 30.2 °F 14% 30.31 in 10.0 mi NNW 11.5 mph 19.6 mph N/A   Clear
4:55 PM 84.2 °F 28.4 °F 13% 30.31 in 10.0 mi NW 11.5 mph 15.0 mph N/A   Clear
5:15 PM 84.2 °F 30.2 °F 14% 30.31 in 10.0 mi NW 13.8 mph 19.6 mph N/A   Clear
5:36 PM 84.2 °F 28.4 °F 13% 30.30 in 10.0 mi WNW 13.8 mph 21.9 mph N/A   Clear
5:55 PM 82.4 °F 30.2 °F 15% 30.29 in 10.0 mi NNW 15.0 mph 18.4 mph N/A   Clear
5:56 PM 84.2 °F 28.4 °F 13% 30.29 in 10.0 mi NNW 12.7 mph 18.4 mph N/A   Clear
6:15 PM 82.4 °F 32.0 °F 16% 30.29 in 10.0 mi NW 12.7 mph - N/A   Clear
6:35 PM 82.4 °F 32.0 °F 16% 30.29 in 10.0 mi NNW 13.8 mph 19.6 mph N/A   Clear
6:55 PM 80.6 °F 32.0 °F 17% 30.29 in 10.0 mi NW 11.5 mph - N/A   Clear
7:15 PM 80.6 °F 32.0 °F 17% 30.29 in 10.0 mi WNW 15.0 mph - N/A   Clear
7:35 PM 80.6 °F 35.6 °F 20% 30.29 in 10.0 mi WNW 13.8 mph - N/A   Clear
7:55 PM 78.8 °F 35.6 °F 21% 30.29 in 10.0 mi NW 10.4 mph - N/A   Clear
8:15 PM 77.0 °F 35.6 °F 22% 30.30 in 10.0 mi NW 10.4 mph - N/A   Clear
8:35 PM 73.4 °F 35.6 °F 25% 30.30 in 10.0 mi NW 11.5 mph - N/A   Clear
8:55 PM 69.8 °F 37.4 °F 31% 30.31 in 10.0 mi NW 10.4 mph - N/A   Clear
9:15 PM 68.0 °F 39.2 °F 35% 30.31 in 10.0 mi NW 8.1 mph - N/A   Clear
9:35 PM 64.4 °F 41.0 °F 42% 30.31 in 10.0 mi WNW 4.6 mph - N/A   Clear
9:55 PM 62.6 °F 39.2 °F 42% 30.32 in 10.0 mi WNW 4.6 mph - N/A   Clear
10:15 PM 59.0 °F 37.4 °F 45% 30.33 in 10.0 mi West 5.8 mph - N/A   Clear
10:35 PM 59.0 °F 39.2 °F 48% 30.34 in 10.0 mi NW 4.6 mph - N/A   Clear
10:55 PM 55.4 °F 37.4 °F 51% 30.34 in 10.0 mi West 6.9 mph - N/A   Clear
11:15 PM 55.4 °F 37.4 °F 51% 30.34 in 10.0 mi WNW 6.9 mph - N/A   Clear
11:35 PM 57.2 °F 35.6 °F 44% 30.34 in 10.0 mi WNW 8.1 mph - N/A   Clear
11:55 PM 55.4 °F 39.2 °F 54% 30.35 in 10.0 mi NNE 9.2 mph - N/A   Clear